This demonstration page uses our WeatherBlox Daily Observations layout. Learn more.

Left ArrowRight Arrow

39.12711, -84.51439

Hourly Observations for June 3, 2017

Temp ( °F °C ) Dew Point ( °F °C ) Humidity (%) Winds ( mph kmh ) Pressure ( in mb ) Visibility ( mi km ) Precip ( " mm )
12:53 am 00:53 Clear 59 15 55 12.8 87 87 Calm 30.06 1018 10 16 0.00 0.00
1:53 am 01:53 Clear 58 14.4 56 13.3 93 93 Calm 30.05 1018 10 16 0.00 0.00
2:53 am 02:53 Clear 57 13.9 55 12.8 93 93 Calm 30.06 1018 10 16 0.00 0.00
3:53 am 03:53 Clear 55 12.8 54 12.2 96 96 NE 3 6 30.07 1018 8 13 0.00 0.00
4:53 am 04:53 Clear 54 12.2 54 12.2 100 100 Calm 30.08 1019 8 13 0.00 0.00
5:53 am 05:53 Clear 54 12.2 54 12.2 100 100 NE 3 6 30.09 1019 8 13 0.00 0.00
6:25 am 06:25 Sunny with Mist and Fog 54 12.2 53 11.7 97 97 Calm 30.09 1019 2 3 0.00 0.00
6:34 am 06:34 Sunny with Mist and Fog 54 12.2 54 12.2 100 100 Calm 30.12 1020 3 5 0.00 0.00
6:53 am 06:53 Sunny 54 12.2 53 11.7 97 97 Calm 30.10 1019 10 16 0.00 0.00
7:53 am 07:53 Sunny 59 15 57 13.9 93 93 Calm 30.11 1020 8 13 0.00 0.00
8:53 am 08:53 Sunny 64 17.8 60 15.6 87 87 Calm 30.11 1020 10 16 0.00 0.00
9:53 am 09:53 Sunny 72 22.2 61 16.1 68 68 Calm 30.11 1020 10 16 0.00 0.00
10:53 am 10:53 Sunny 78 25.6 61 16.1 56 56 SW 6 9 30.09 1019 10 16 0.00 0.00
11:53 am 11:53 Sunny 82 27.8 58 14.4 44 44 WSW 7 11 30.09 1019 10 16 0.00 0.00
12:53 pm 12:53 Sunny 83 28.3 54 12.2 37 37 Calm 30.08 1019 10 16 0.00 0.00
1:53 pm 13:53 Mostly Sunny 84 28.9 58 14.4 41 41 S 6 9 30.06 1018 10 16 0.00 0.00
2:53 pm 14:53 Mostly Sunny 85 29.4 58 14.4 40 40 VRB 3 6 30.04 1017 10 16 0.00 0.00
3:53 pm 15:53 Mostly Sunny 85 29.4 59 15 42 42 SSW 7 11 30.03 1017 10 16 0.00 0.00
4:53 pm 16:53 Mostly Sunny 85 29.4 56 13.3 37 37 W 5 7 30.01 1016 10 16 0.00 0.00
5:53 pm 17:53 Sunny 84 28.9 57 13.9 40 40 S 7 11 30.00 1016 10 16 0.00 0.00
6:53 pm 18:53 Sunny 82 27.8 56 13.3 41 41 S 5 7 30.00 1016 10 16 0.00 0.00
7:53 pm 19:53 Sunny 78 25.6 61 16.1 56 56 S 6 9 29.99 1016 10 16 0.00 0.00
8:53 pm 20:53 Sunny 73 22.8 62 16.7 69 69 S 5 7 29.98 1015 10 16 0.00 0.00
9:53 pm 21:53 Clear 67 19.4 60 15.6 79 79 SSW 3 6 29.98 1015 10 16 0.00 0.00
10:53 pm 22:53 Clear 67 19.4 60 15.6 79 79 SSW 3 6 30.00 1016 10 16 0.00 0.00
11:53 pm 23:53 Clear 65 18.3 60 15.6 84 84 SW 3 6 30.02 1017 10 16 0.00 0.00

Powered by AerisWeather